User: anonymous   Login
Location: Libas
(9.8833°N, 125.9833°E)
Time: 12:12:23
(UTC+00:00)
Language:

Cosmos 2228 - Orbit

View from above orbital plane
View from above orbital plane
View from above satellite
View from above satellite

Ground track
Ground track

The orbit data is extracted from the following two-line orbital elements,

1 22286U 92094A   21023.04302951  .00000202  00000-0  19049-4 0  9997
2 22286  82.5186 212.6484 0022509  72.9944 287.3738 14.88221438518173
Epoch (UTC): 23 January 2021 01:01:57
Eccentricity: 0.0022509
inclination: 82.5186°
perigee height: 588 km
apogee height: 619 km
right ascension of ascending node: 212.6484°
argument of perigee: 72.9944°
revolutions per day: 14.88221438
mean anomaly at epoch: 287.3738°
orbit number at epoch: 51817

The dashed part of the orbit path shows where the satellite is in the earth's shadow,  

DLR